Time,TemperatureF,DewpointF,PressureIn,WindDirection,WindDirectionDegrees,WindSpeedMPH,WindSpeedGustMPH,Humidity,HourlyPrecipIn,Conditions,Clouds,dailyrainin,SoftwareType,DateUTC
2013-09-19 00:03:00,68.7,65.2,29.99,SE,135,0.0,0.0,88,0.00,,,0.00,WUHU21623XXSP,2013-09-19 05:03:00,
2013-09-19 00:08:00,68.7,65.0,29.99,SE,135,0.0,0.0,88,0.00,,,0.00,WUHU21623XXSP,2013-09-19 05:08:00,
2013-09-19 00:13:00,68.5,65.0,29.99,SE,135,0.0,0.0,88,0.00,,,0.00,WUHU21623XXSP,2013-09-19 05:13:00,
2013-09-19 00:18:00,68.5,64.8,29.99,SE,135,0.0,0.0,88,0.00,,,0.00,WUHU21623XXSP,2013-09-19 05:18:00,
2013-09-19 00:23:00,68.4,64.6,29.99,SE,135,0.0,0.0,88,0.00,,,0.00,WUHU21623XXSP,2013-09-19 05:23:00,
2013-09-19 00:28:00,68.2,64.5,29.99,SE,135,0.0,0.0,88,0.00,,,0.00,WUHU21623XXSP,2013-09-19 05:28:00,
2013-09-19 00:33:00,68.2,64.1,30.00,SE,135,0.0,0.0,87,0.00,,,0.00,WUHU21623XXSP,2013-09-19 05:33:00,
2013-09-19 00:38:00,67.8,63.8,30.00,SE,135,0.0,0.0,87,0.00,,,0.00,WUHU21623XXSP,2013-09-19 05:38:00,
2013-09-19 00:43:00,67.8,63.8,30.00,SE,135,0.0,0.0,87,0.00,,,0.00,WUHU21623XXSP,2013-09-19 05:43:00,
2013-09-19 00:48:00,67.8,63.8,30.00,SE,135,0.0,0.0,87,0.00,,,0.00,WUHU21623XXSP,2013-09-19 05:48:00,
2013-09-19 00:53:00,67.8,63.8,30.00,SE,135,0.7,0.7,87,0.00,,,0.00,WUHU21623XXSP,2013-09-19 05:53:00,
2013-09-19 00:58:00,67.6,63.3,30.00,SE,135,0.0,0.7,86,0.00,,,0.00,WUHU21623XXSP,2013-09-19 05:58:00,
2013-09-19 01:03:00,67.6,63.3,30.00,SSE,157,2.2,2.2,86,0.00,,,0.00,WUHU21623XXSP,2013-09-19 06:03:00,
2013-09-19 01:08:00,67.3,62.9,30.00,SSE,157,0.0,8.5,86,0.00,,,0.00,WUHU21623XXSP,2013-09-19 06:08:00,
2013-09-19 01:13:00,67.3,62.9,30.00,SSE,157,1.8,8.5,87,0.00,,,0.00,WUHU21623XXSP,2013-09-19 06:13:00,
2013-09-19 01:18:00,67.1,63.1,30.00,SE,135,2.9,2.9,87,0.00,,,0.00,WUHU21623XXSP,2013-09-19 06:18:00,
2013-09-19 01:23:00,67.1,63.1,29.99,SSE,157,2.0,2.9,87,0.00,,,0.00,WUHU21623XXSP,2013-09-19 06:23:00,
2013-09-19 01:28:00,67.1,63.1,29.99,SSE,157,0.0,2.0,87,0.00,,,0.00,WUHU21623XXSP,2013-09-19 06:28:00,
2013-09-19 01:33:00,67.1,63.1,30.00,SSE,157,0.0,2.0,87,0.00,,,0.00,WUHU21623XXSP,2013-09-19 06:33:00,
2013-09-19 01:38:00,67.1,63.1,29.99,SSE,157,0.0,5.4,87,0.00,,,0.00,WUHU21623XXSP,2013-09-19 06:38:00,
2013-09-19 01:43:00,67.3,63.2,30.00,SSE,157,0.0,5.4,87,0.00,,,0.00,WUHU21623XXSP,2013-09-19 06:43:00,
2013-09-19 01:49:00,67.3,63.2,29.99,SSE,157,0.0,5.4,87,0.00,,,0.00,WUHU21623XXSP,2013-09-19 06:49:00,
2013-09-19 01:53:00,67.3,63.2,29.99,SSE,157,3.1,3.1,87,0.00,,,0.00,WUHU21623XXSP,2013-09-19 06:53:00,
2013-09-19 01:59:00,67.3,63.2,29.99,SSE,157,2.7,3.1,87,0.00,,,0.00,WUHU21623XXSP,2013-09-19 06:59:00,
2013-09-19 02:04:00,67.6,63.4,29.99,SSE,157,4.7,4.7,87,0.00,,,0.00,WUHU21623XXSP,2013-09-19 07:04:00,
2013-09-19 02:09:00,67.6,63.6,29.99,SSE,157,0.0,4.7,87,0.00,,,0.00,WUHU21623XXSP,2013-09-19 07:09:00,
2013-09-19 02:14:00,67.6,63.6,29.99,SSE,157,5.8,8.5,87,0.00,,,0.00,WUHU21623XXSP,2013-09-19 07:14:00,
2013-09-19 02:19:00,67.6,63.6,29.99,SSE,157,2.5,8.5,87,0.00,,,0.00,WUHU21623XXSP,2013-09-19 07:19:00,
2013-09-19 02:24:00,67.6,63.6,29.99,SSE,157,0.0,5.8,87,0.00,,,0.00,WUHU21623XXSP,2013-09-19 07:24:00,
2013-09-19 02:29:00,67.6,63.6,29.99,SSE,157,2.2,2.2,87,0.00,,,0.00,WUHU21623XXSP,2013-09-19 07:29:00,
2013-09-19 02:34:00,67.8,63.8,29.99,SSE,157,0.0,2.2,87,0.00,,,0.00,WUHU21623XXSP,2013-09-19 07:34:00,
2013-09-19 02:39:00,67.8,63.8,29.99,SSE,157,0.0,3.8,87,0.00,,,0.00,WUHU21623XXSP,2013-09-19 07:39:00,
2013-09-19 02:44:00,67.8,63.8,29.99,SSE,157,0.0,3.8,87,0.00,,,0.00,WUHU21623XXSP,2013-09-19 07:44:00,
2013-09-19 02:49:00,67.8,63.8,29.99,SSE,157,0.0,0.0,87,0.00,,,0.00,WUHU21623XXSP,2013-09-19 07:49:00,
2013-09-19 02:54:00,67.8,63.5,29.99,SSE,157,0.0,2.5,86,0.00,,,0.00,WUHU21623XXSP,2013-09-19 07:54:00,
2013-09-19 02:59:00,67.8,63.5,29.98,SSE,157,0.0,0.0,86,0.00,,,0.00,WUHU21623XXSP,2013-09-19 07:59:00,
2013-09-19 03:04:00,67.8,63.5,29.98,SSE,157,0.0,1.3,86,0.00,,,0.00,WUHU21623XXSP,2013-09-19 08:04:00,
2013-09-19 03:09:00,67.8,63.5,29.98,SSE,157,7.4,7.4,86,0.00,,,0.00,WUHU21623XXSP,2013-09-19 08:09:00,
2013-09-19 03:14:00,67.8,63.5,29.98,SSE,157,7.4,7.4,86,0.00,,,0.00,WUHU21623XXSP,2013-09-19 08:14:00,
2013-09-19 03:19:00,67.8,63.5,29.98,SSE,157,4.9,7.4,86,0.00,,,0.00,WUHU21623XXSP,2013-09-19 08:19:00,
2013-09-19 03:24:00,67.8,63.5,29.98,SSE,157,6.3,6.3,86,0.00,,,0.00,WUHU21623XXSP,2013-09-19 08:24:00,
2013-09-19 03:29:00,67.8,63.1,29.98,SSE,157,6.0,6.3,85,0.00,,,0.00,WUHU21623XXSP,2013-09-19 08:29:00,
2013-09-19 03:34:00,67.8,63.1,29.98,SSE,157,8.1,8.1,85,0.00,,,0.00,WUHU21623XXSP,2013-09-19 08:34:00,
2013-09-19 03:39:00,67.8,63.1,29.97,SSE,157,1.6,8.1,85,0.00,,,0.00,WUHU21623XXSP,2013-09-19 08:39:00,
2013-09-19 03:44:00,67.8,63.1,29.97,SSE,157,3.6,8.1,85,0.00,,,0.00,WUHU21623XXSP,2013-09-19 08:44:00,
2013-09-19 03:49:00,67.8,63.1,29.97,South,180,5.6,8.1,85,0.00,,,0.00,WUHU21623XXSP,2013-09-19 08:49:00,
2013-09-19 03:54:00,67.8,63.1,29.97,SSE,157,6.7,8.1,85,0.00,,,0.00,WUHU21623XXSP,2013-09-19 08:54:00,
2013-09-19 03:59:00,67.8,63.1,29.97,South,180,10.5,10.5,85,0.00,,,0.00,WUHU21623XXSP,2013-09-19 08:59:00,
2013-09-19 04:04:00,68.2,63.5,29.97,South,180,4.0,10.5,85,0.00,,,0.00,WUHU21623XXSP,2013-09-19 09:04:00,
2013-09-19 04:09:00,68.0,63.3,29.97,SSE,157,6.5,6.5,85,0.00,,,0.00,WUHU21623XXSP,2013-09-19 09:09:00,
2013-09-19 04:15:00,67.8,63.1,29.96,SSE,157,5.1,6.5,85,0.00,,,0.00,WUHU21623XXSP,2013-09-19 09:15:00,
2013-09-19 04:20:00,67.8,63.1,29.96,SSE,157,4.3,6.5,85,0.00,,,0.00,WUHU21623XXSP,2013-09-19 09:20:00,
2013-09-19 04:25:00,67.8,63.5,29.96,SSE,157,5.6,5.6,86,0.00,,,0.00,WUHU21623XXSP,2013-09-19 09:25:00,
2013-09-19 04:30:00,67.8,63.5,29.97,SSE,157,6.5,7.6,86,0.00,,,0.00,WUHU21623XXSP,2013-09-19 09:30:00,
2013-09-19 04:35:00,67.6,63.3,29.97,SSE,157,6.5,7.6,86,0.00,,,0.00,WUHU21623XXSP,2013-09-19 09:35:00,
2013-09-19 04:40:00,67.6,63.3,29.97,SE,135,6.9,6.9,86,0.00,,,0.00,WUHU21623XXSP,2013-09-19 09:40:00,
2013-09-19 04:45:00,67.5,63.1,29.96,SSE,157,5.4,6.9,86,0.00,,,0.00,WUHU21623XXSP,2013-09-19 09:45:00,
2013-09-19 04:50:00,67.3,62.9,29.96,SSE,157,0.0,5.4,86,0.00,,,0.00,WUHU21623XXSP,2013-09-19 09:50:00,
2013-09-19 04:55:00,67.3,62.6,29.96,SSE,157,0.0,6.5,85,0.00,,,0.00,WUHU21623XXSP,2013-09-19 09:55:00,
2013-09-19 05:00:00,67.3,62.6,29.96,SSE,157,2.0,6.5,85,0.00,,,0.00,WUHU21623XXSP,2013-09-19 10:00:00,
2013-09-19 05:05:00,67.3,62.6,29.96,SSE,157,0.0,4.0,85,0.00,,,0.00,WUHU21623XXSP,2013-09-19 10:05:00,
2013-09-19 05:10:00,67.3,62.6,29.97,SSE,157,0.0,0.7,85,0.00,,,0.00,WUHU21623XXSP,2013-09-19 10:10:00,
2013-09-19 05:15:00,67.3,62.6,29.96,SSE,157,7.2,7.2,85,0.00,,,0.00,WUHU21623XXSP,2013-09-19 10:15:00,
2013-09-19 05:20:00,67.3,62.6,29.96,SSE,157,6.9,7.2,85,0.00,,,0.00,WUHU21623XXSP,2013-09-19 10:20:00,
2013-09-19 05:25:00,67.3,62.6,29.96,SSE,157,1.1,7.2,85,0.00,,,0.00,WUHU21623XXSP,2013-09-19 10:25:00,
2013-09-19 05:30:00,67.3,62.6,29.96,SSE,157,1.1,2.0,84,0.00,,,0.00,WUHU21623XXSP,2013-09-19 10:30:00,
2013-09-19 05:36:00,67.5,62.5,29.96,SSE,157,0.0,1.1,84,0.00,,,0.00,WUHU21623XXSP,2013-09-19 10:36:00,
2013-09-19 05:41:00,67.6,62.6,29.96,SSE,157,0.0,6.3,84,0.00,,,0.00,WUHU21623XXSP,2013-09-19 10:41:00,
2013-09-19 05:46:00,67.6,62.6,29.97,SSE,157,2.7,6.3,84,0.00,,,0.00,WUHU21623XXSP,2013-09-19 10:46:00,
2013-09-19 05:51:00,67.6,62.3,29.97,SSE,157,1.8,2.7,83,0.00,,,0.00,WUHU21623XXSP,2013-09-19 10:51:00,
2013-09-19 05:56:00,67.6,62.3,29.97,SSE,157,0.0,1.8,83,0.00,,,0.00,WUHU21623XXSP,2013-09-19 10:56:00,
2013-09-19 06:01:00,67.6,62.3,29.97,SSE,157,2.7,2.7,83,0.00,,,0.00,WUHU21623XXSP,2013-09-19 11:01:00,
2013-09-19 06:06:00,67.6,62.0,29.97,SSE,157,0.0,7.6,82,0.00,,,0.00,WUHU21623XXSP,2013-09-19 11:06:00,
2013-09-19 06:11:00,67.6,62.0,29.97,SSE,157,3.4,7.6,82,0.00,,,0.00,WUHU21623XXSP,2013-09-19 11:11:00,
2013-09-19 06:16:00,67.6,62.0,29.97,SSE,157,7.4,7.4,82,0.00,,,0.00,WUHU21623XXSP,2013-09-19 11:16:00,
2013-09-19 06:21:00,67.6,61.7,29.96,SSE,157,7.2,7.4,81,0.00,,,0.00,WUHU21623XXSP,2013-09-19 11:21:00,
2013-09-19 06:26:00,67.6,61.7,29.97,SSE,157,4.3,7.4,81,0.00,,,0.00,WUHU21623XXSP,2013-09-19 11:26:00,
2013-09-19 06:31:00,67.6,61.7,29.97,SSE,157,4.5,4.5,81,0.00,,,0.00,WUHU21623XXSP,2013-09-19 11:31:00,
2013-09-19 06:36:00,67.6,61.7,29.97,SSE,157,0.0,4.5,81,0.00,,,0.00,WUHU21623XXSP,2013-09-19 11:36:00,
2013-09-19 06:41:00,67.6,61.3,29.97,SSE,157,7.2,7.8,80,0.00,,,0.00,WUHU21623XXSP,2013-09-19 11:41:00,
2013-09-19 06:46:00,67.6,61.3,29.97,SSE,157,3.8,7.8,80,0.00,,,0.00,WUHU21623XXSP,2013-09-19 11:46:00,
2013-09-19 06:51:00,67.8,61.5,29.97,SSE,157,6.0,7.2,80,0.00,,,0.00,WUHU21623XXSP,2013-09-19 11:51:00,
2013-09-19 06:56:00,67.8,61.1,29.97,SSE,157,0.0,7.2,79,0.00,,,0.00,WUHU21623XXSP,2013-09-19 11:56:00,
2013-09-19 07:01:00,67.8,61.1,29.96,SSE,157,1.6,1.6,79,0.00,,,0.00,WUHU21623XXSP,2013-09-19 12:01:00,
2013-09-19 07:06:00,67.8,61.1,29.96,SSE,157,0.0,1.6,79,0.00,,,0.00,WUHU21623XXSP,2013-09-19 12:06:00,
2013-09-19 07:11:00,68.2,61.3,29.97,SSE,157,0.0,0.0,79,0.00,,,0.00,WUHU21623XXSP,2013-09-19 12:11:00,
2013-09-19 07:16:00,68.2,61.5,29.97,SSE,157,0.0,0.0,79,0.00,,,0.00,WUHU21623XXSP,2013-09-19 12:16:00,
2013-09-19 07:21:00,68.4,61.3,29.97,SSE,157,0.0,0.0,78,0.00,,,0.00,WUHU21623XXSP,2013-09-19 12:21:00,
2013-09-19 07:26:00,68.5,61.4,29.97,SSE,157,3.6,3.6,78,0.00,,,0.00,WUHU21623XXSP,2013-09-19 12:26:00,
2013-09-19 07:31:00,68.9,61.8,29.97,SSE,157,3.4,3.6,78,0.00,,,0.00,WUHU21623XXSP,2013-09-19 12:31:00,
2013-09-19 07:36:00,69.4,61.9,29.97,SSE,157,0.0,5.4,77,0.00,,,0.00,WUHU21623XXSP,2013-09-19 12:36:00,
2013-09-19 07:41:00,69.6,62.0,29.97,SSE,157,7.4,7.4,77,0.00,,,0.00,WUHU21623XXSP,2013-09-19 12:41:00,
2013-09-19 07:46:00,70.2,62.5,29.97,SSE,157,0.0,7.4,77,0.00,,,0.00,WUHU21623XXSP,2013-09-19 12:46:00,
2013-09-19 07:51:00,70.5,62.9,29.97,SSE,157,0.0,7.2,78,0.00,,,0.00,WUHU21623XXSP,2013-09-19 12:51:00,
2013-09-19 07:56:00,71.1,63.8,29.97,South,180,7.4,7.4,78,0.00,,,0.00,WUHU21623XXSP,2013-09-19 12:56:00,
2013-09-19 08:02:00,71.2,64.0,29.97,SSE,157,5.6,7.4,78,0.00,,,0.00,WUHU21623XXSP,2013-09-19 13:02:00,
2013-09-19 08:07:00,71.8,64.7,29.97,South,180,7.6,10.3,79,0.00,,,0.00,WUHU21623XXSP,2013-09-19 13:07:00,
2013-09-19 08:12:00,72.0,65.1,29.97,South,180,2.2,7.6,79,0.00,,,0.00,WUHU21623XXSP,2013-09-19 13:12:00,
2013-09-19 08:17:00,72.1,65.7,29.97,SSE,157,8.7,8.7,81,0.00,,,0.00,WUHU21623XXSP,2013-09-19 13:17:00,
2013-09-19 08:22:00,72.3,66.5,29.97,SSE,157,10.3,10.3,82,0.00,,,0.00,WUHU21623XXSP,2013-09-19 13:22:00,
2013-09-19 08:27:00,72.7,66.9,29.97,WSW,247,8.7,10.3,82,0.00,,,0.00,WUHU21623XXSP,2013-09-19 13:27:00,
2013-09-19 08:32:00,72.9,67.7,29.97,South,180,6.0,9.8,84,0.00,,,0.00,WUHU21623XXSP,2013-09-19 13:32:00,
2013-09-19 08:37:00,73.0,67.9,29.97,SSW,202,5.6,9.8,84,0.00,,,0.00,WUHU21623XXSP,2013-09-19 13:37:00,
2013-09-19 08:42:00,73.0,68.3,29.96,South,180,2.0,6.9,84,0.00,,,0.00,WUHU21623XXSP,2013-09-19 13:42:00,
2013-09-19 08:47:00,73.2,68.8,29.95,South,180,8.1,8.1,86,0.00,,,0.00,WUHU21623XXSP,2013-09-19 13:47:00,
2013-09-19 08:52:00,73.2,68.8,29.95,South,180,7.4,8.1,86,0.00,,,0.00,WUHU21623XXSP,2013-09-19 13:52:00,
2013-09-19 08:57:00,73.4,69.3,29.95,South,180,7.8,8.1,87,0.00,,,0.00,WUHU21623XXSP,2013-09-19 13:57:00,
2013-09-19 09:02:00,73.8,69.7,29.95,SSE,157,9.4,9.4,87,0.00,,,0.00,WUHU21623XXSP,2013-09-19 14:02:00,
2013-09-19 09:07:00,73.6,69.5,29.95,South,180,10.5,10.5,87,0.02,,,0.02,WUHU21623XXSP,2013-09-19 14:07:00,
2013-09-19 09:12:00,73.6,69.5,29.95,South,180,8.7,10.5,87,0.06,,,0.06,WUHU21623XXSP,2013-09-19 14:12:00,
2013-09-19 09:17:00,73.9,69.9,29.96,South,180,7.2,13.4,87,0.06,,,0.06,WUHU21623XXSP,2013-09-19 14:17:00,
2013-09-19 09:22:00,74.1,70.0,29.96,SSE,157,13.4,13.4,87,0.06,,,0.06,WUHU21623XXSP,2013-09-19 14:22:00,
2013-09-19 09:27:00,74.5,70.0,29.96,South,180,5.8,13.4,87,0.06,,,0.06,WUHU21623XXSP,2013-09-19 14:27:00,
2013-09-19 09:32:00,74.7,70.9,29.96,SSE,157,7.8,12.1,88,0.06,,,0.06,WUHU21623XXSP,2013-09-19 14:32:00,
2013-09-19 09:37:00,74.7,70.9,29.96,SSE,157,7.8,12.1,88,0.06,,,0.06,WUHU21623XXSP,2013-09-19 14:37:00,
2013-09-19 09:42:00,74.8,71.1,29.96,SSE,157,7.2,7.8,88,0.06,,,0.06,WUHU21623XXSP,2013-09-19 14:42:00,
2013-09-19 09:47:00,75.0,71.1,29.96,SSW,202,2.7,7.8,88,0.06,,,0.06,WUHU21623XXSP,2013-09-19 14:47:00,
2013-09-19 09:52:00,75.0,71.3,29.96,SSW,202,6.9,7.2,88,0.06,,,0.06,WUHU21623XXSP,2013-09-19 14:52:00,
2013-09-19 09:57:00,75.4,71.6,29.97,South,180,4.0,6.9,88,0.06,,,0.06,WUHU21623XXSP,2013-09-19 14:57:00,
2013-09-19 10:02:00,75.9,72.2,29.96,South,180,0.0,5.8,88,0.04,,,0.06,WUHU21623XXSP,2013-09-19 15:02:00,
2013-09-19 10:08:00,76.6,72.5,29.96,SSE,157,8.5,8.5,87,0.04,,,0.06,WUHU21623XXSP,2013-09-19 15:08:00,
2013-09-19 10:13:00,77.5,73.2,29.96,SSE,157,7.4,11.6,86,0.00,,,0.06,WUHU21623XXSP,2013-09-19 15:13:00,
2013-09-19 10:18:00,78.1,73.4,29.96,SSE,157,7.4,7.4,85,0.00,,,0.06,WUHU21623XXSP,2013-09-19 15:18:00,
2013-09-19 10:23:00,78.6,73.4,29.96,SSE,157,8.9,8.9,84,0.00,,,0.06,WUHU21623XXSP,2013-09-19 15:23:00,
2013-09-19 10:28:00,79.2,73.7,29.95,South,180,8.1,8.9,83,0.00,,,0.06,WUHU21623XXSP,2013-09-19 15:28:00,
2013-09-19 10:33:00,79.5,73.6,29.96,SSE,157,3.4,8.1,82,0.00,,,0.06,WUHU21623XXSP,2013-09-19 15:33:00,
2013-09-19 10:38:00,80.1,73.0,29.96,SSW,202,7.6,7.6,79,0.00,,,0.06,WUHU21623XXSP,2013-09-19 15:38:00,
2013-09-19 10:43:00,80.4,73.8,29.96,South,180,6.7,9.8,80,0.00,,,0.06,WUHU21623XXSP,2013-09-19 15:43:00,
2013-09-19 10:48:00,80.8,73.7,29.95,South,180,4.3,9.8,79,0.00,,,0.06,WUHU21623XXSP,2013-09-19 15:48:00,
2013-09-19 10:53:00,81.5,74.0,29.95,South,180,6.5,9.6,78,0.00,,,0.06,WUHU21623XXSP,2013-09-19 15:53:00,
2013-09-19 10:58:00,81.9,73.6,29.95,South,180,8.3,9.6,76,0.00,,,0.06,WUHU21623XXSP,2013-09-19 15:58:00,
2013-09-19 11:03:00,82.0,73.3,29.95,SW,225,5.1,11.9,75,0.02,,,0.08,WUHU21623XXSP,2013-09-19 16:03:00,
2013-09-19 11:08:00,82.0,73.3,29.95,South,180,7.6,11.9,75,0.02,,,0.08,WUHU21623XXSP,2013-09-19 16:08:00,
2013-09-19 11:13:00,82.2,73.1,29.95,South,180,7.6,8.1,74,0.02,,,0.08,WUHU21623XXSP,2013-09-19 16:13:00,
2013-09-19 11:18:00,82.8,73.8,29.95,SW,225,4.3,9.6,75,0.02,,,0.08,WUHU21623XXSP,2013-09-19 16:18:00,
2013-09-19 11:23:00,83.1,73.5,29.94,SSE,157,6.3,9.6,73,0.02,,,0.08,WUHU21623XXSP,2013-09-19 16:23:00,
2013-09-19 11:28:00,83.5,73.5,29.94,SW,225,6.0,7.2,72,0.02,,,0.08,WUHU21623XXSP,2013-09-19 16:28:00,
2013-09-19 11:33:00,83.7,73.7,29.94,SSE,157,5.6,7.2,72,0.02,,,0.08,WUHU21623XXSP,2013-09-19 16:33:00,
2013-09-19 11:38:00,84.4,74.4,29.94,SSW,202,2.9,6.0,72,0.02,,,0.08,WUHU21623XXSP,2013-09-19 16:38:00,
2013-09-19 11:43:00,84.7,73.9,29.94,SSE,157,9.2,9.2,70,0.02,,,0.08,WUHU21623XXSP,2013-09-19 16:43:00,
2013-09-19 11:48:00,85.3,74.0,29.94,South,180,11.4,11.4,69,0.02,,,0.08,WUHU21623XXSP,2013-09-19 16:48:00,
2013-09-19 11:53:00,85.3,74.0,29.94,SSW,202,8.7,11.4,68,0.02,,,0.08,WUHU21623XXSP,2013-09-19 16:53:00,
2013-09-19 11:58:00,85.6,73.9,29.94,South,180,5.4,8.7,68,0.00,,,0.08,WUHU21623XXSP,2013-09-19 16:58:00,
2013-09-19 12:04:00,86.2,74.4,29.94,SSW,202,4.5,6.9,68,0.00,,,0.08,WUHU21623XXSP,2013-09-19 17:04:00,
2013-09-19 12:09:00,86.4,74.1,29.94,SSW,202,7.2,7.2,67,0.00,,,0.08,WUHU21623XXSP,2013-09-19 17:09:00,
2013-09-19 12:14:00,86.7,74.0,29.93,WSW,247,3.4,7.2,66,0.00,,,0.08,WUHU21623XXSP,2013-09-19 17:14:00,
2013-09-19 12:19:00,87.3,73.6,29.93,SSW,202,1.1,9.2,64,0.00,,,0.08,WUHU21623XXSP,2013-09-19 17:19:00,
2013-09-19 12:24:00,87.4,73.8,29.93,South,180,3.8,9.2,64,0.00,,,0.08,WUHU21623XXSP,2013-09-19 17:24:00,
2013-09-19 12:29:00,87.6,73.9,29.93,WSW,247,7.2,7.2,64,0.00,,,0.08,WUHU21623XXSP,2013-09-19 17:29:00,
2013-09-19 12:34:00,88.0,73.8,29.93,SSW,202,3.8,15.0,63,0.00,,,0.08,WUHU21623XXSP,2013-09-19 17:34:00,
2013-09-19 12:39:00,88.2,73.5,29.92,South,180,6.7,15.0,62,0.00,,,0.08,WUHU21623XXSP,2013-09-19 17:39:00,
2013-09-19 12:44:00,88.7,73.6,29.92,South,180,11.0,15.4,61,0.00,,,0.08,WUHU21623XXSP,2013-09-19 17:44:00,
2013-09-19 12:49:00,88.9,73.7,29.93,WSW,247,0.0,15.4,61,0.00,,,0.08,WUHU21623XXSP,2013-09-19 17:49:00,
2013-09-19 12:54:00,89.2,74.1,29.93,SSW,202,0.0,8.9,61,0.00,,,0.08,WUHU21623XXSP,2013-09-19 17:54:00,
2013-09-19 12:59:00,89.2,73.6,29.92,SSE,157,2.9,12.8,60,0.00,,,0.08,WUHU21623XXSP,2013-09-19 17:59:00,
2013-09-19 13:04:00,89.8,73.6,29.92,SW,225,5.4,12.8,59,0.00,,,0.08,WUHU21623XXSP,2013-09-19 18:04:00,
2013-09-19 13:09:00,90.0,73.7,29.92,SW,225,6.9,6.9,59,0.00,,,0.08,WUHU21623XXSP,2013-09-19 18:09:00,
2013-09-19 13:14:00,89.4,73.2,29.92,WSW,247,7.6,7.6,58,0.00,,,0.08,WUHU21623XXSP,2013-09-19 18:14:00,
2013-09-19 13:19:00,89.4,72.7,29.91,WSW,247,1.3,7.6,58,0.00,,,0.08,WUHU21623XXSP,2013-09-19 18:19:00,
2013-09-19 13:24:00,89.4,73.2,29.91,South,180,3.8,7.4,58,0.00,,,0.08,WUHU21623XXSP,2013-09-19 18:24:00,
2013-09-19 13:29:00,89.8,73.3,29.91,South,180,0.0,8.5,58,0.00,,,0.08,WUHU21623XXSP,2013-09-19 18:29:00,
2013-09-19 13:34:00,90.5,72.6,29.90,WSW,247,0.0,8.5,56,0.00,,,0.08,WUHU21623XXSP,2013-09-19 18:34:00,
2013-09-19 13:39:00,90.7,72.8,29.91,South,180,9.4,9.4,56,0.00,,,0.08,WUHU21623XXSP,2013-09-19 18:39:00,
2013-09-19 13:45:00,90.9,72.9,29.90,WSW,247,8.1,9.4,56,0.00,,,0.08,WUHU21623XXSP,2013-09-19 18:45:00,
2013-09-19 13:50:00,91.0,73.1,29.90,WSW,247,0.0,8.1,55,0.00,,,0.08,WUHU21623XXSP,2013-09-19 18:50:00,
2013-09-19 13:55:00,91.0,72.5,29.90,SSW,202,0.0,8.1,55,0.00,,,0.08,WUHU21623XXSP,2013-09-19 18:55:00,
2013-09-19 14:00:00,90.7,72.8,29.90,SSW,202,8.1,8.1,56,0.00,,,0.08,WUHU21623XXSP,2013-09-19 19:00:00,
2013-09-19 14:05:00,90.7,72.9,29.90,SSE,157,8.9,8.9,56,0.00,,,0.08,WUHU21623XXSP,2013-09-19 19:05:00,
2013-09-19 14:10:00,90.5,72.1,29.90,SW,225,0.0,8.9,55,0.00,,,0.08,WUHU21623XXSP,2013-09-19 19:10:00,
2013-09-19 14:15:00,90.7,72.2,29.89,SW,225,5.1,8.9,55,0.00,,,0.08,WUHU21623XXSP,2013-09-19 19:15:00,
2013-09-19 14:20:00,91.2,72.2,29.89,WSW,247,5.4,9.2,54,0.00,,,0.08,WUHU21623XXSP,2013-09-19 19:20:00,
2013-09-19 14:25:00,91.6,72.2,29.89,SSW,202,0.0,9.2,53,0.00,,,0.08,WUHU21623XXSP,2013-09-19 19:25:00,
2013-09-19 14:30:00,91.6,72.5,29.88,WSW,247,8.5,8.5,54,0.00,,,0.08,WUHU21623XXSP,2013-09-19 19:30:00,
2013-09-19 14:35:00,91.9,72.8,29.88,SSE,157,9.4,9.4,54,0.00,,,0.08,WUHU21623XXSP,2013-09-19 19:35:00,
2013-09-19 14:40:00,91.8,72.1,29.88,South,180,6.3,9.4,53,0.00,,,0.08,WUHU21623XXSP,2013-09-19 19:40:00,
2013-09-19 14:45:00,91.9,72.3,29.88,WSW,247,8.9,8.9,53,0.00,,,0.08,WUHU21623XXSP,2013-09-19 19:45:00,
2013-09-19 14:50:00,92.1,72.4,29.88,West,270,0.0,8.9,53,0.00,,,0.08,WUHU21623XXSP,2013-09-19 19:50:00,
2013-09-19 14:55:00,92.3,71.9,29.88,SW,225,0.0,7.6,52,0.00,,,0.08,WUHU21623XXSP,2013-09-19 19:55:00,
2013-09-19 15:00:00,92.1,72.4,29.87,South,180,0.0,7.6,53,0.00,,,0.08,WUHU21623XXSP,2013-09-19 20:00:00,
2013-09-19 15:05:00,91.9,72.3,29.87,SSW,202,9.8,9.8,53,0.00,,,0.08,WUHU21623XXSP,2013-09-19 20:05:00,
2013-09-19 15:10:00,92.8,73.1,29.87,WSW,247,0.0,9.8,53,0.00,,,0.08,WUHU21623XXSP,2013-09-19 20:10:00,
2013-09-19 15:15:00,93.0,72.2,29.87,WSW,247,6.3,6.3,51,0.00,,,0.08,WUHU21623XXSP,2013-09-19 20:15:00,
2013-09-19 15:20:00,93.4,72.0,29.87,WSW,247,5.4,8.1,50,0.00,,,0.08,WUHU21623XXSP,2013-09-19 20:20:00,
2013-09-19 15:25:00,93.0,71.6,29.86,WSW,247,0.0,8.1,50,0.00,,,0.08,WUHU21623XXSP,2013-09-19 20:25:00,
2013-09-19 15:30:00,93.0,71.6,29.86,WSW,247,1.3,5.8,50,0.00,,,0.08,WUHU21623XXSP,2013-09-19 20:30:00,
2013-09-19 15:35:00,92.8,72.0,29.86,WSW,247,4.7,5.8,51,0.00,,,0.08,WUHU21623XXSP,2013-09-19 20:35:00,
2013-09-19 15:40:00,92.8,72.0,29.85,West,270,0.0,4.7,51,0.00,,,0.08,WUHU21623XXSP,2013-09-19 20:40:00,
2013-09-19 15:45:00,92.8,72.0,29.85,WSW,247,0.0,4.7,51,0.00,,,0.08,WUHU21623XXSP,2013-09-19 20:45:00,
2013-09-19 15:50:00,93.0,72.2,29.85,WSW,247,0.0,0.0,51,0.00,,,0.08,WUHU21623XXSP,2013-09-19 20:50:00,
2013-09-19 15:55:00,92.3,71.8,29.84,SSW,202,7.2,7.2,51,0.00,,,0.08,WUHU21623XXSP,2013-09-19 20:55:00,
2013-09-19 16:00:00,92.3,71.5,29.84,WSW,247,7.6,9.6,51,0.00,,,0.08,WUHU21623XXSP,2013-09-19 21:00:00,
2013-09-19 16:05:00,92.5,71.7,29.84,SW,225,0.0,9.6,51,0.00,,,0.08,WUHU21623XXSP,2013-09-19 21:05:00,
2013-09-19 16:10:00,92.7,72.4,29.84,WSW,247,0.0,5.8,52,0.00,,,0.08,WUHU21623XXSP,2013-09-19 21:10:00,
2013-09-19 16:15:00,93.0,72.0,29.85,WSW,247,11.6,11.6,51,0.00,,,0.08,WUHU21623XXSP,2013-09-19 21:15:00,
2013-09-19 16:20:00,93.0,71.6,29.85,WSW,247,0.0,11.6,50,0.00,,,0.08,WUHU21623XXSP,2013-09-19 21:20:00,
2013-09-19 16:25:00,92.8,71.5,29.85,SSW,202,7.8,7.8,50,0.00,,,0.08,WUHU21623XXSP,2013-09-19 21:25:00,
2013-09-19 16:30:00,92.3,71.0,29.85,WSW,247,0.0,7.8,50,0.00,,,0.08,WUHU21623XXSP,2013-09-19 21:30:00,
2013-09-19 16:35:00,91.9,71.0,29.85,SSE,157,0.0,5.1,52,0.00,,,0.08,WUHU21623XXSP,2013-09-19 21:35:00,
2013-09-19 16:40:00,90.1,71.7,29.85,SSE,157,0.0,8.5,55,0.00,,,0.08,WUHU21623XXSP,2013-09-19 21:40:00,
2013-09-19 16:45:00,89.1,71.1,29.85,SSE,157,6.3,8.5,56,0.00,,,0.08,WUHU21623XXSP,2013-09-19 21:45:00,
2013-09-19 16:50:00,88.3,71.2,29.85,SSE,157,10.3,10.3,57,0.00,,,0.08,WUHU21623XXSP,2013-09-19 21:50:00,
2013-09-19 16:55:00,87.1,70.0,29.84,South,180,11.4,11.4,57,0.00,,,0.08,WUHU21623XXSP,2013-09-19 21:55:00,
2013-09-19 17:00:00,86.9,68.9,29.85,SSE,157,3.8,11.4,55,0.00,,,0.08,WUHU21623XXSP,2013-09-19 22:00:00,
2013-09-19 17:05:00,86.7,67.5,29.85,SSE,157,8.1,11.4,53,0.00,,,0.08,WUHU21623XXSP,2013-09-19 22:05:00,
2013-09-19 17:10:00,86.4,68.8,29.84,SSE,157,6.7,11.4,58,0.00,,,0.08,WUHU21623XXSP,2013-09-19 22:10:00,
2013-09-19 17:15:00,84.6,69.2,29.84,South,180,7.8,7.8,60,0.00,,,0.08,WUHU21623XXSP,2013-09-19 22:15:00,
2013-09-19 17:20:00,84.0,69.8,29.84,WSW,247,0.0,9.8,62,0.00,,,0.08,WUHU21623XXSP,2013-09-19 22:20:00,
2013-09-19 17:25:00,84.2,69.8,29.84,SSE,157,6.5,9.8,63,0.00,,,0.08,WUHU21623XXSP,2013-09-19 22:25:00,
2013-09-19 17:30:00,83.5,70.0,29.84,SSE,157,8.7,8.7,64,0.00,,,0.08,WUHU21623XXSP,2013-09-19 22:30:00,
2013-09-19 17:35:00,82.2,69.6,29.84,SSE,157,11.6,13.2,66,0.00,,,0.08,WUHU21623XXSP,2013-09-19 22:35:00,
2013-09-19 17:40:00,82.0,70.1,29.84,SSE,157,9.8,13.2,68,0.00,,,0.08,WUHU21623XXSP,2013-09-19 22:40:00,
2013-09-19 17:45:00,81.7,70.1,29.84,SSE,157,6.0,9.8,68,0.00,,,0.08,WUHU21623XXSP,2013-09-19 22:45:00,
2013-09-19 17:50:00,81.0,69.4,29.83,SSE,157,3.8,9.8,68,0.00,,,0.08,WUHU21623XXSP,2013-09-19 22:50:00,
2013-09-19 17:55:00,80.8,69.2,29.83,SE,135,5.6,7.8,68,0.00,,,0.08,WUHU21623XXSP,2013-09-19 22:55:00,
2013-09-19 18:01:00,80.2,69.2,29.82,SE,135,0.0,7.8,69,0.00,,,0.08,WUHU21623XXSP,2013-09-19 23:01:00,
2013-09-19 18:06:00,79.9,69.4,29.83,SSE,157,6.5,8.3,70,0.00,,,0.08,WUHU21623XXSP,2013-09-19 23:06:00,
2013-09-19 18:11:00,79.5,69.3,29.82,SE,135,10.3,10.3,71,0.00,,,0.08,WUHU21623XXSP,2013-09-19 23:11:00,
2013-09-19 18:16:00,79.2,68.9,29.83,SSE,157,8.3,10.3,71,0.00,,,0.08,WUHU21623XXSP,2013-09-19 23:16:00,
2013-09-19 18:21:00,78.6,68.8,29.82,SSE,157,5.6,10.5,71,0.00,,,0.08,WUHU21623XXSP,2013-09-19 23:21:00,
2013-09-19 18:26:00,78.6,68.4,29.83,SSE,157,1.1,10.5,71,0.00,,,0.08,WUHU21623XXSP,2013-09-19 23:26:00,
2013-09-19 18:31:00,78.6,68.8,29.83,SSE,157,5.6,9.4,72,0.00,,,0.08,WUHU21623XXSP,2013-09-19 23:31:00,
2013-09-19 18:36:00,78.4,69.0,29.84,SSE,157,7.6,7.8,73,0.00,,,0.08,WUHU21623XXSP,2013-09-19 23:36:00,
2013-09-19 18:41:00,78.1,68.9,29.84,SSE,157,0.4,9.2,73,0.00,,,0.08,WUHU21623XXSP,2013-09-19 23:41:00,
2013-09-19 18:46:00,78.1,68.7,29.84,SSE,157,8.1,9.2,73,0.00,,,0.08,WUHU21623XXSP,2013-09-19 23:46:00,
2013-09-19 18:51:00,77.9,68.5,29.84,SSE,157,6.5,8.1,73,0.00,,,0.08,WUHU21623XXSP,2013-09-19 23:51:00,
2013-09-19 18:56:00,77.7,68.9,29.84,SSE,157,12.3,12.3,74,0.00,,,0.08,WUHU21623XXSP,2013-09-19 23:56:00,
2013-09-19 19:01:00,77.7,68.7,29.85,SSE,157,2.0,12.3,74,0.00,,,0.08,WUHU21623XXSP,2013-09-20 00:01:00,
2013-09-19 19:06:00,77.5,68.7,29.85,SSE,157,6.3,8.3,74,0.00,,,0.08,WUHU21623XXSP,2013-09-20 00:06:00,
2013-09-19 19:11:00,77.5,68.6,29.85,SE,135,0.0,6.3,74,0.00,,,0.08,WUHU21623XXSP,2013-09-20 00:11:00,
2013-09-19 19:16:00,77.2,68.6,29.85,SSE,157,0.0,6.3,75,0.00,,,0.08,WUHU21623XXSP,2013-09-20 00:16:00,
2013-09-19 19:21:00,77.2,68.6,29.85,SSE,157,5.8,5.8,75,0.00,,,0.08,WUHU21623XXSP,2013-09-20 00:21:00,
2013-09-19 19:26:00,77.0,68.5,29.86,SSE,157,2.0,5.8,75,0.00,,,0.08,WUHU21623XXSP,2013-09-20 00:26:00,
2013-09-19 19:31:00,76.8,68.3,29.85,SSE,157,0.0,7.8,75,0.00,,,0.08,WUHU21623XXSP,2013-09-20 00:31:00,
2013-09-19 19:36:00,76.8,68.3,29.85,SSE,157,0.0,7.8,75,0.00,,,0.08,WUHU21623XXSP,2013-09-20 00:36:00,
2013-09-19 19:41:00,76.8,68.3,29.85,SSE,157,5.1,8.1,75,0.00,,,0.08,WUHU21623XXSP,2013-09-20 00:41:00,
2013-09-19 19:47:00,76.6,68.5,29.85,SSE,157,0.0,8.1,76,0.00,,,0.08,WUHU21623XXSP,2013-09-20 00:47:00,
2013-09-19 19:52:00,76.6,68.5,29.85,SSE,157,0.0,7.8,76,0.00,,,0.08,WUHU21623XXSP,2013-09-20 00:52:00,
2013-09-19 19:57:00,76.3,68.5,29.85,SSE,157,0.0,5.4,77,0.00,,,0.08,WUHU21623XXSP,2013-09-20 00:57:00,
2013-09-19 20:02:00,76.3,68.5,29.86,SSE,157,6.9,6.9,77,0.00,,,0.08,WUHU21623XXSP,2013-09-20 01:02:00,
2013-09-19 20:07:00,76.3,68.9,29.85,SE,135,2.0,6.9,78,0.00,,,0.08,WUHU21623XXSP,2013-09-20 01:07:00,
2013-09-19 20:12:00,76.3,68.9,29.85,South,180,6.9,6.9,78,0.00,,,0.08,WUHU21623XXSP,2013-09-20 01:12:00,
2013-09-19 20:17:00,76.1,69.1,29.85,SSE,157,2.0,6.9,79,0.00,,,0.08,WUHU21623XXSP,2013-09-20 01:17:00,
2013-09-19 20:22:00,76.1,69.1,29.85,South,180,7.4,7.4,79,0.00,,,0.08,WUHU21623XXSP,2013-09-20 01:22:00,
2013-09-19 20:27:00,76.1,69.5,29.85,SSE,157,0.0,7.4,80,0.00,,,0.08,WUHU21623XXSP,2013-09-20 01:27:00,
2013-09-19 20:32:00,76.1,69.5,29.85,SSE,157,0.0,6.7,80,0.00,,,0.08,WUHU21623XXSP,2013-09-20 01:32:00,
2013-09-19 20:37:00,75.9,69.4,29.85,SSE,157,0.0,0.0,80,0.00,,,0.08,WUHU21623XXSP,2013-09-20 01:37:00,
2013-09-19 20:42:00,75.9,69.7,29.85,SSE,157,0.0,0.0,81,0.00,,,0.08,WUHU21623XXSP,2013-09-20 01:42:00,
2013-09-19 20:47:00,75.9,69.7,29.85,SSE,157,0.0,0.0,81,0.00,,,0.08,WUHU21623XXSP,2013-09-20 01:47:00,
2013-09-19 20:52:00,75.7,69.9,29.85,SSE,157,4.3,4.3,82,0.00,,,0.08,WUHU21623XXSP,2013-09-20 01:52:00,
2013-09-19 20:57:00,75.7,69.9,29.85,SSE,157,2.2,4.7,82,0.00,,,0.08,WUHU21623XXSP,2013-09-20 01:57:00,
2013-09-19 21:03:00,75.7,69.9,29.85,South,180,0.0,4.7,82,0.00,,,0.08,WUHU21623XXSP,2013-09-20 02:03:00,
2013-09-19 21:08:00,75.6,70.1,29.84,SSE,157,3.6,8.3,83,0.00,,,0.08,WUHU21623XXSP,2013-09-20 02:08:00,
2013-09-19 21:13:00,75.6,70.1,29.85,SSE,157,0.0,3.6,83,0.00,,,0.08,WUHU21623XXSP,2013-09-20 02:13:00,
2013-09-19 21:18:00,75.6,70.1,29.84,SSE,157,3.8,8.1,83,0.00,,,0.08,WUHU21623XXSP,2013-09-20 02:18:00,
2013-09-19 21:23:00,75.6,70.1,29.84,SSE,157,4.3,8.1,83,0.00,,,0.08,WUHU21623XXSP,2013-09-20 02:23:00,
2013-09-19 21:28:00,75.6,70.1,29.84,SSE,157,7.6,7.6,83,0.00,,,0.08,WUHU21623XXSP,2013-09-20 02:28:00,
2013-09-19 21:33:00,75.7,70.2,29.83,South,180,8.1,8.9,83,0.00,,,0.08,WUHU21623XXSP,2013-09-20 02:33:00,
2013-09-19 21:38:00,75.9,70.1,29.83,South,180,9.8,9.8,82,0.00,,,0.08,WUHU21623XXSP,2013-09-20 02:38:00,
2013-09-19 21:43:00,75.9,70.1,29.84,SSE,157,2.5,9.8,82,0.00,,,0.08,WUHU21623XXSP,2013-09-20 02:43:00,
2013-09-19 21:48:00,76.3,70.4,29.84,SSE,157,0.0,4.0,82,0.00,,,0.08,WUHU21623XXSP,2013-09-20 02:48:00,
2013-09-19 21:53:00,76.6,70.7,29.84,SSE,157,3.1,5.4,82,0.00,,,0.08,WUHU21623XXSP,2013-09-20 02:53:00,
2013-09-19 21:58:00,76.6,70.4,29.84,SSE,157,0.0,7.4,81,0.00,,,0.08,WUHU21623XXSP,2013-09-20 02:58:00,
2013-09-19 22:03:00,76.8,70.5,29.84,SSE,157,4.3,7.4,81,0.00,,,0.08,WUHU21623XXSP,2013-09-20 03:03:00,
2013-09-19 22:08:00,76.8,70.5,29.85,SSW,202,0.0,4.3,81,0.00,,,0.08,WUHU21623XXSP,2013-09-20 03:08:00,
2013-09-19 22:13:00,77.0,70.3,29.85,SSE,157,8.1,8.1,80,0.00,,,0.08,WUHU21623XXSP,2013-09-20 03:13:00,
2013-09-19 22:18:00,77.2,70.5,29.85,South,180,6.3,9.8,80,0.00,,,0.08,WUHU21623XXSP,2013-09-20 03:18:00,
2013-09-19 22:23:00,77.2,70.5,29.85,SSE,157,8.5,9.8,80,0.00,,,0.08,WUHU21623XXSP,2013-09-20 03:23:00,
2013-09-19 22:28:00,77.2,70.5,29.85,South,180,7.2,8.5,80,0.00,,,0.08,WUHU21623XXSP,2013-09-20 03:28:00,
2013-09-19 22:33:00,77.2,70.5,29.85,SSE,157,0.0,11.4,80,0.00,,,0.08,WUHU21623XXSP,2013-09-20 03:33:00,
2013-09-19 22:39:00,77.2,70.5,29.85,South,180,9.6,11.4,80,0.00,,,0.08,WUHU21623XXSP,2013-09-20 03:39:00,
2013-09-19 22:44:00,77.2,70.5,29.85,SSW,202,9.4,9.6,80,0.00,,,0.08,WUHU21623XXSP,2013-09-20 03:44:00,
2013-09-19 22:49:00,77.2,70.5,29.85,SSE,157,0.0,9.4,80,0.00,,,0.08,WUHU21623XXSP,2013-09-20 03:49:00,
2013-09-19 22:54:00,77.2,70.5,29.85,South,180,0.0,9.6,80,0.00,,,0.08,WUHU21623XXSP,2013-09-20 03:54:00,
2013-09-19 22:59:00,77.2,70.5,29.85,SSE,157,5.1,9.6,80,0.00,,,0.08,WUHU21623XXSP,2013-09-20 03:59:00,
2013-09-19 23:01:00,77.2,70.5,29.85,SSE,157,5.1,9.6,80,0.00,,,0.08,WUHU21623XXSP,2013-09-20 04:01:00,
2013-09-19 23:02:00,77.2,70.5,29.85,SSE,157,5.1,9.6,80,0.00,,,0.08,WUHU21623XXSP,2013-09-20 04:02:00,
2013-09-19 23:07:00,77.2,70.5,29.84,SSE,157,6.9,8.7,80,0.00,,,0.08,WUHU21623XXSP,2013-09-20 04:07:00,
2013-09-19 23:12:00,77.2,70.5,29.85,South,180,8.5,8.7,80,0.00,,,0.08,WUHU21623XXSP,2013-09-20 04:12:00,
2013-09-19 23:17:00,77.2,70.5,29.85,South,180,2.0,8.5,80,0.00,,,0.08,WUHU21623XXSP,2013-09-20 04:17:00,
2013-09-19 23:22:00,77.0,70.3,29.84,South,180,8.1,8.1,80,0.00,,,0.08,WUHU21623XXSP,2013-09-20 04:22:00,
2013-09-19 23:27:00,77.0,70.3,29.85,South,180,12.5,12.5,80,0.00,,,0.08,WUHU21623XXSP,2013-09-20 04:27:00,
2013-09-19 23:32:00,76.8,70.2,29.84,SSW,202,5.6,13.0,80,0.00,,,0.08,WUHU21623XXSP,2013-09-20 04:32:00,
2013-09-19 23:37:00,76.8,70.2,29.85,SSW,202,5.6,13.0,80,0.00,,,0.08,WUHU21623XXSP,2013-09-20 04:37:00,
2013-09-19 23:42:00,76.8,70.2,29.85,South,180,8.7,8.7,81,0.00,,,0.08,WUHU21623XXSP,2013-09-20 04:42:00,
2013-09-19 23:47:00,76.8,70.5,29.85,SSE,157,7.2,9.8,81,0.00,,,0.08,WUHU21623XXSP,2013-09-20 04:47:00,
2013-09-19 23:52:00,76.6,70.4,29.85,South,180,11.2,12.8,81,0.00,,,0.08,WUHU21623XXSP,2013-09-20 04:52:00,
2013-09-19 23:57:00,76.6,70.4,29.85,SSE,157,12.3,12.8,81,0.00,,,0.08,WUHU21623XXSP,2013-09-20 04:57:00,